Weather History for Gillette, WY

Change the Weather History Date:

Friday, March 15, 2013

  Actual Average Record
Temperature  
Mean Temperature 50 °F 35 °F  
Max Temperature 66 °F 47 °F 68 °F (2012)
Min Temperature 33 °F 22 °F -5 °F (1943)
Degree Days  
Heating Degree Days 15 30  
Month to date heating degree days 426 484  
Since 1 July heating degree days 5549 5892  
Cooling Degree Days 0 0  
Month to date cooling degree days 0 0  
Year to date cooling degree days 0 0  
Growing Degree Days 2 (Base 50)    
Moisture  
Dew Point 25 °F    
Average Humidity 45    
Maximum Humidity 70    
Minimum Humidity 19    
Precipitation  
Precipitation 0.00 in 0.03 in 0.63 in (1928)
Month to date precipitation 0.02 0.38  
Year to date precipitation 1.15 1.16  
Sea Level Pressure  
Sea Level Pressure 29.87 in    
Wind  
Wind Speed 14 mph (NNW)    
Max Wind Speed 28 mph    
Max Gust Speed 33 mph    
Visibility 10 miles    
Events      
T = Trace of Precipitation, MM = Missing Value Source: NWS Daily Summary

Daily Weather History Graph

Daily Weather History Graph

Search for Another Location

Airport:

Trip Planner

Search our weather history database for the weather conditions in past years. The results will help you decide how hot, cold, wet, or windy it might be!

Date:

Astronomy

Mar. 15, 2013 Rise Set
Actual Time 7:13 AM MDT 7:08 PM MDT
Civil Twilight 6:45 AM MDT 7:37 PM MDT
Nautical Twilight 6:11 AM MDT 8:11 PM MDT
Astronomical Twilight 5:37 AM MDT 8:45 PM MDT
Moon 8:55 AM MDT (3/15) 11:36 PM MDT (3/15)
Length of Visible Light 12h 52m
Length of Day
11h 54m
Waxing Crescent, 16% of the Moon is Illuminated
Mar 15
Waxing Crescent
Mar 19
First Quarter
Mar 27
Full
Apr 2
Last Quarter
Apr 10
New

Hourly Weather History & Observations

Time (MDT) Temp. Windchill Dew Point Humidity Pressure Visibility Wind Dir Wind Speed Gust Speed Precip Events Conditions
12:53 AM 42.8 °F 39.3 °F 30.2 °F 61% 29.98 in - South 5.8 mph - N/A   Clear
1:53 AM 39.9 °F 35.1 °F 30.0 °F 68% 29.90 in - South 6.9 mph - N/A   Clear
2:53 AM 45.0 °F 39.3 °F 28.9 °F 53% 29.84 in - South 11.5 mph - N/A   Clear
3:53 AM 43.0 °F 38.2 °F 28.9 °F 58% 29.82 in - South 8.1 mph - N/A   Clear
4:53 AM 42.1 °F 38.4 °F 28.0 °F 58% 29.80 in - SE 5.8 mph - N/A   Clear
5:53 AM 46.9 °F - 28.0 °F 48% 29.79 in - Variable 3.5 mph - N/A   Clear
6:53 AM 51.1 °F - 26.1 °F 38% 29.80 in - West 15.0 mph - N/A   Clear
7:53 AM 46.0 °F 40.6 °F 26.1 °F 46% 29.85 in 10.0 mi West 11.5 mph - N/A   Clear
8:53 AM 55.9 °F - 25.0 °F 30% 29.85 in 10.0 mi WNW 11.5 mph - N/A   Partly Cloudy
9:53 AM 60.1 °F - 24.1 °F 25% 29.84 in 10.0 mi NNW 18.4 mph 25.3 mph N/A   Scattered Clouds
10:53 AM 59.0 °F - 23.0 °F 25% 29.87 in 10.0 mi NNW 19.6 mph - N/A   Scattered Clouds
11:53 AM 60.1 °F - 21.9 °F 23% 29.85 in 10.0 mi NNW 17.3 mph 25.3 mph N/A   Overcast
12:53 PM 63.0 °F - 21.0 °F 20% 29.83 in 10.0 mi NNW 24.2 mph 32.2 mph N/A   Partly Cloudy
1:53 PM 64.9 °F - 21.0 °F 19% 29.81 in 10.0 mi NW 25.3 mph 32.2 mph N/A   Scattered Clouds
2:53 PM 62.1 °F - 21.0 °F 21% 29.80 in 10.0 mi NW 20.7 mph 27.6 mph N/A   Partly Cloudy
3:53 PM 63.0 °F - 21.9 °F 21% 29.81 in 10.0 mi NW 15.0 mph 27.6 mph N/A   Scattered Clouds
4:53 PM 62.1 °F - 21.9 °F 21% 29.83 in 10.0 mi NW 23.0 mph 28.8 mph N/A   Mostly Cloudy
5:53 PM 59.0 °F - 18.0 °F 20% 29.83 in 10.0 mi North 16.1 mph - N/A   Scattered Clouds
6:53 PM 53.1 °F - 27.0 °F 37% 29.87 in 10.0 mi NNE 17.3 mph - N/A   Overcast
7:53 PM 46.0 °F 38.3 °F 28.0 °F 50% 29.95 in 10.0 mi NNE 20.7 mph 32.2 mph N/A   Mostly Cloudy
8:53 PM 43.0 °F 35.7 °F 27.0 °F 53% 29.95 in 10.0 mi North 15.0 mph - N/A   Clear
9:53 PM 41.0 °F 35.8 °F 27.0 °F 57% 29.96 in 10.0 mi NNE 8.1 mph - N/A   Clear
10:53 PM 41.0 °F 38.0 °F 28.0 °F 60% 29.98 in 10.0 mi NNE 4.6 mph - N/A   Overcast
11:53 PM 37.9 °F 32.7 °F 28.0 °F 68% 29.99 in 10.0 mi NW 6.9 mph - N/A   Mostly Cloudy